Regional Weather Roundup
Issued by NWS

Home | Current Version | Previous Version | Graphics & Text | Print | Product List | Glossary On
Versions: 1 2 3 4 5 6 7 8 9 10 11 12 13 14 15 16 17 18 19 20 21 22 23 24 25 26 27 28 29 30 31 32 33 34 35 36 37 38 39 40 41 42 43 44 45 46 47 48 49 50
977
ASUS44 KMEG 271110
RWRTN
TENNESSEE HOURLY STATE WEATHER ROUNDUP
NATIONAL WEATHER SERVICE MEMPHIS TN
600 AM CDT SAT MAY 27 2017

TNZ002-004-019-021-049-052-054-088>092-271200-
WEST TENNESSEE

CITY           SKY/WX    TMP DP  RH WIND       PRES   REMARKS
MEMPHIS INTL   MOCLDY    75  70  84 SW12      29.89S
NWS MEMPHIS      N/A     76 N/A N/A MISG        N/A
JACKSON        CLOUDY    72  69  90 SW8       29.90R
DYERSBURG        N/A    N/A N/A N/A MISG        N/A
COVINGTON      CLOUDY    73  70  88 CALM      29.89R
UNION CITY       N/A     72  68  88 CALM      29.88R
BOLIVAR        PTCLDY    72  68  88 CALM      29.90R
PARIS          MOCLDY    70  66  88 SW5       29.89R
HUNTINGDON     MOCLDY    70  66  88 CALM      29.89R
LEXINGTON      MOCLDY    68  64  88 MISG      29.92R
SELMER         CLEAR     70  64  83 SW5       29.92R
SAVANNAH       CLEAR     70  64  83 CALM      29.93R
$$

TNZ008-025-027-028-033-062-065-066-271200-
NORTH MIDDLE TENNESSEE

CITY           SKY/WX    TMP DP  RH WIND       PRES   REMARKS
NASHVILLE      MOCLDY    69  62  78 S5        29.92R
PORTLAND       CLOUDY    72  63  73 S6        29.91R
CLARKSVILLE    CLOUDY    70  63  78 SW7       29.90R
SMYRNA         CLOUDY    70  63  78 S5        29.94R
COOKEVILLE     CLOUDY    70  63  78 S6        29.93S
GALLATIN       CLOUDY    72  63  73 CALM      29.94R
CROSSVILLE     CLOUDY    65  59  81 CALM      29.99S
$$

TNZ061-075-076-078-094-096-097-271200-
SOUTH MIDDLE TENNESSEE

CITY           SKY/WX    TMP DP  RH WIND       PRES   REMARKS
FAYETTEVILLE   PTCLDY    70  63  78 S6        29.96R
TULLAHOMA      CLOUDY    68  61  77 SW5       29.98R
WINCHESTER     MOCLDY    66  63  88 CALM        N/A
MCMINNVILLE    CLOUDY    72  64  78 CALM      29.96R
COLUMBIA       CLOUDY    70  63  78 SW3       29.92R
SHELBYVILLE    CLOUDY    70  64  83 S6        29.95R
$$

TNZ017-018-042-046-047-271200-
NORTHEAST TENNESSEE

CITY           SKY/WX    TMP DP  RH WIND       PRES   REMARKS
TRI CITIES     MOCLDY    59  57  93 CALM      30.00R
ELIZABETHTON   CLEAR     59  57  94 CALM      30.00S
$$

TNZ012-013-036-069-073-074-271200-
CENTRAL EAST TENNESSEE

CITY           SKY/WX    TMP DP  RH WIND       PRES   REMARKS
KNOXVILLE      NOT AVBL
OAK RIDGE      MOCLDY    65  61  87 CALM      29.98S
DOWNTOWN KNOXV PTCLDY    64  64 100 CALM      29.96S
GATLINBURG     PTCLDY    64  59  82 CALM      29.96S
MORRISTOWN     MOCLDY    63  61  94 CALM      29.97R
JACKSBORO      PTCLDY    61  59  94 CALM      29.99S FOG
$$

TNZ083-085-099-271200-
SOUTHEAST TENNESSEE

CITY           SKY/WX    TMP DP  RH WIND       PRES   REMARKS
CHATTANOOGA    CLOUDY    66  63  90 CALM      29.98R
$$

SKY/WX REPORTED AS FAIR MEANS FEW OR NO CLOUDS BELOW
12 THOUSAND FEET.





USA.gov is the U.S. government's official web portal to all federal, state and local government web resources and services.